Weather History for Massena, NY

Change the Weather History Date:

Thursday, October 28, 2010

  Actual Average Record
Temperature  
Mean Temperature 54 °F 42 °F  
Max Temperature 61 °F 51 °F 75 °F (1984)
Min Temperature 48 °F 33 °F 16 °F (1974)
Degree Days  
Heating Degree Days 10 23  
Month to date heating degree days 512  
Since 1 July heating degree days 812  
Cooling Degree Days 0 0  
Month to date cooling degree days 0  
Year to date cooling degree days 361  
Growing Degree Days 4 (Base 50)    
Moisture  
Dew Point 39 °F    
Average Humidity 53    
Maximum Humidity 74    
Minimum Humidity 41    
Precipitation  
Precipitation 0.00 in 0.10 in 1.14 in (2008)
Month to date precipitation 3.00  
Year to date precipitation 29.19  
Sea Level Pressure  
Sea Level Pressure 29.72 in    
Wind  
Wind Speed 14 mph (SW)    
Max Wind Speed 24 mph    
Max Gust Speed 37 mph    
Visibility 10 miles    
Events      
T = Trace of Precipitation, MM = Missing Value Source: NWS Daily Summary

Daily Weather History Graph

Daily Weather History Graph

Search for Another Location

Airport:

Trip Planner

Search our weather history database for the weather conditions in past years. The results will help you decide how hot, cold, wet, or windy it might be!

Date:

Astronomy

Oct. 28, 2010 Rise Set
Actual Time 7:32 AM EDT 5:53 PM EDT
Civil Twilight 7:01 AM EDT 6:23 PM EDT
Nautical Twilight 6:27 AM EDT 6:58 PM EDT
Astronomical Twilight 5:53 AM EDT 7:32 PM EDT
Moon 10:14 PM EDT (10/28) 12:58 PM EDT (10/28)
Length of Visible Light 11h 21m
Length of Day
10h 21m
Waning Gibbous, 70% of the Moon is Illuminated
Oct 28
Waning Gibbous
Oct 30
Last Quarter
Nov 6
New
Nov 13
First Quarter
Nov 21
Full

Hourly Weather History & Observations

Time (EDT) Temp. Dew Point Humidity Pressure Visibility Wind Dir Wind Speed Gust Speed Precip Events Conditions
12:53 AM 61.0 °F 39.0 °F 44% 29.68 in 10.0 mi SSW 9.2 mph - N/A   Partly Cloudy
1:53 AM 59.0 °F 37.9 °F 46% 29.66 in 10.0 mi SSW 12.7 mph - N/A   Clear
2:53 AM 59.0 °F 39.0 °F 48% 29.65 in 10.0 mi SSW 10.4 mph - N/A   Clear
3:53 AM 57.9 °F 39.9 °F 51% 29.63 in 10.0 mi South 9.2 mph - N/A   Clear
4:53 AM 57.9 °F 41.0 °F 53% 29.63 in 10.0 mi SSW 13.8 mph - N/A   Clear
5:53 AM 57.9 °F 41.0 °F 53% 29.63 in 10.0 mi SSW 13.8 mph - N/A   Clear
6:53 AM 59.0 °F 39.9 °F 49% 29.61 in 10.0 mi SSW 17.3 mph 25.3 mph N/A   Clear
7:53 AM 60.1 °F 39.0 °F 46% 29.60 in 10.0 mi SSW 19.6 mph 27.6 mph N/A   Overcast
8:53 AM 61.0 °F 37.9 °F 42% 29.62 in 10.0 mi SW 18.4 mph 34.5 mph N/A   Mostly Cloudy
9:53 AM 61.0 °F 37.0 °F 41% 29.63 in 10.0 mi WSW 18.4 mph 33.4 mph N/A   Overcast
10:53 AM 57.9 °F 39.0 °F 49% 29.65 in 10.0 mi WSW 18.4 mph 35.7 mph N/A   Overcast
11:53 AM 57.0 °F 39.0 °F 51% 29.68 in 10.0 mi SW 24.2 mph 36.8 mph N/A   Overcast
12:53 PM 55.9 °F 41.0 °F 57% 29.70 in 10.0 mi SW 17.3 mph 31.1 mph N/A   Overcast
1:53 PM 55.0 °F 37.9 °F 53% 29.72 in 10.0 mi West 15.0 mph 20.7 mph N/A   Overcast
2:53 PM 57.0 °F 36.0 °F 45% 29.73 in 10.0 mi WSW 19.6 mph 29.9 mph N/A   Overcast
3:53 PM 57.0 °F 36.0 °F 45% 29.75 in 10.0 mi WSW 16.1 mph 23.0 mph N/A   Overcast
4:53 PM 55.9 °F 36.0 °F 47% 29.77 in 10.0 mi WSW 12.7 mph 25.3 mph N/A   Overcast
5:53 PM 54.0 °F 37.0 °F 53% 29.80 in 10.0 mi SW 16.1 mph 21.9 mph N/A   Overcast
6:53 PM 53.1 °F 39.0 °F 59% 29.83 in 10.0 mi SW 12.7 mph 21.9 mph N/A   Overcast
7:53 PM 52.0 °F 39.0 °F 61% 29.85 in 10.0 mi SW 12.7 mph 19.6 mph N/A   Mostly Cloudy
8:53 PM 51.1 °F 39.9 °F 66% 29.86 in 10.0 mi SW 10.4 mph - N/A   Mostly Cloudy
9:53 PM 48.9 °F 39.9 °F 71% 29.88 in 10.0 mi SW 10.4 mph - N/A   Scattered Clouds
10:53 PM 48.9 °F 39.9 °F 71% 29.88 in 10.0 mi SW 11.5 mph - N/A   Overcast
11:53 PM 48.0 °F 39.9 °F 74% 29.88 in 10.0 mi SW 9.2 mph - N/A   Overcast